Tracking 30696 objects as of 15-Jun-2025
HD Live streaming from Space Station
objects crossing your sky now

SL-8 DEB

Track SL-8 DEB now!
10-day predictions


NORAD ID: 10526
Int'l Code: 1977-116D
Perigee: 958.4 km
Apogee: 991.9 km
Inclination: 65.8 °
Period: 104.4 minutes
Semi major axis: 7346 km
RCS: 0.1839 m2 (medium)
Launch date: December 13, 1977
Source: Commonwealth of Independent States (former USSR) (CIS)
Launch site: PLESETSK MISSILE AND SPACE COMPLEX (PKMTR)

Note: This is SATELLITE DEBRIS
Your satellite tracking list
Your tracking list is empty




NASA's NSSDC Master Catalog

Two Line Element Set (TLE):
1 10526U 77116D   25166.21658683  .00000114  00000-0  19110-3 0  9996
2 10526  65.8334 253.0808 0022819 144.5102 242.4047 13.78835555386134
Source of the keplerian elements: AFSPC